Year,Month,Day,Hour,Minute,Value (Times are PST for barometer in hPa)
2010,01,22,00,01,984.31
2010,01,22,00,02,984.31
2010,01,22,00,03,984.31
2010,01,22,00,05,984.31
2010,01,22,00,06,984.31
2010,01,22,00,07,984.31
2010,01,22,00,08,984.31
2010,01,22,00,10,984.31
2010,01,22,00,11,984.31
2010,01,22,00,12,984.31
2010,01,22,00,13,984.31
2010,01,22,00,15,984.31
2010,01,22,00,16,984.31
2010,01,22,00,17,984.31
2010,01,22,00,18,984.31
2010,01,22,00,19,984.31
2010,01,22,00,21,983.97
2010,01,22,00,22,984.31
2010,01,22,00,23,984.31
2010,01,22,00,24,984.31
2010,01,22,00,26,984.31
2010,01,22,00,27,984.31
2010,01,22,00,28,984.31
2010,01,22,00,30,983.97
2010,01,22,00,31,983.97
2010,01,22,00,32,983.97
2010,01,22,00,34,983.97
2010,01,22,00,35,983.97
2010,01,22,00,36,983.97
2010,01,22,00,37,983.97
2010,01,22,00,38,983.97
2010,01,22,00,40,983.97
2010,01,22,00,41,983.97
2010,01,22,00,42,983.97
2010,01,22,00,43,983.97
2010,01,22,00,44,983.97
2010,01,22,00,46,983.97
2010,01,22,00,47,983.97
2010,01,22,00,48,983.97
2010,01,22,00,49,983.97
2010,01,22,00,52,983.97
2010,01,22,00,53,983.97
2010,01,22,00,54,983.97
2010,01,22,00,55,983.97
2010,01,22,00,57,983.97
2010,01,22,00,58,983.97
2010,01,22,01,00,983.63
2010,01,22,01,02,983.63
2010,01,22,01,03,983.63
2010,01,22,01,04,983.63
2010,01,22,01,05,983.63
2010,01,22,01,06,983.63
2010,01,22,01,08,983.63
2010,01,22,01,10,983.63
2010,01,22,01,11,983.63
2010,01,22,01,13,983.63
2010,01,22,01,14,983.63
2010,01,22,01,15,983.63
2010,01,22,01,16,983.63
2010,01,22,01,17,983.63
2010,01,22,01,19,983.63
2010,01,22,01,20,983.63
2010,01,22,01,21,983.63
2010,01,22,01,22,983.63
2010,01,22,01,23,983.63
2010,01,22,01,24,983.63
2010,01,22,01,26,983.63
2010,01,22,01,27,983.63
2010,01,22,01,28,983.63
2010,01,22,01,30,983.63
2010,01,22,01,31,983.63
2010,01,22,01,33,983.63
2010,01,22,01,34,983.63
2010,01,22,01,35,983.63
2010,01,22,01,36,983.63
2010,01,22,01,38,983.63
2010,01,22,01,39,983.63
2010,01,22,01,40,983.63
2010,01,22,01,41,983.63
2010,01,22,01,42,983.63
2010,01,22,01,44,983.63
2010,01,22,01,45,983.63
2010,01,22,01,46,983.63
2010,01,22,01,47,983.63
2010,01,22,01,48,983.63
2010,01,22,01,49,983.63
2010,01,22,01,52,983.97
2010,01,22,01,53,983.97
2010,01,22,01,54,983.97
2010,01,22,01,55,983.63
2010,01,22,01,57,983.97
2010,01,22,01,58,983.97
2010,01,22,02,00,983.97
2010,01,22,02,01,983.97
2010,01,22,02,03,983.97
2010,01,22,02,04,983.97
2010,01,22,02,05,983.97
2010,01,22,02,06,983.97
2010,01,22,02,08,983.97
2010,01,22,02,09,983.97
2010,01,22,02,10,983.97
2010,01,22,02,11,983.97
2010,01,22,02,12,983.97
2010,01,22,02,13,983.97
2010,01,22,02,15,983.97
2010,01,22,02,16,983.97
2010,01,22,02,17,983.97
2010,01,22,02,18,983.97
2010,01,22,02,20,983.97
2010,01,22,02,21,983.97
2010,01,22,02,22,983.97
2010,01,22,02,23,983.97
2010,01,22,02,24,983.97
2010,01,22,02,26,983.97
2010,01,22,02,27,983.97
2010,01,22,02,28,983.97
2010,01,22,02,30,983.97
2010,01,22,02,31,983.97
2010,01,22,02,32,983.97
2010,01,22,02,34,983.97
2010,01,22,02,35,983.97
2010,01,22,02,36,983.97
2010,01,22,02,37,983.97
2010,01,22,02,38,983.97
2010,01,22,02,40,983.97
2010,01,22,02,41,983.97
2010,01,22,02,42,983.97
2010,01,22,02,43,983.97
2010,01,22,02,45,983.97
2010,01,22,02,46,983.97
2010,01,22,02,47,983.97
2010,01,22,02,48,983.97
2010,01,22,02,49,983.97
2010,01,22,02,51,983.63
2010,01,22,02,52,983.97
2010,01,22,02,53,983.97
2010,01,22,02,54,983.63
2010,01,22,02,56,983.97
2010,01,22,02,57,983.63
2010,01,22,02,58,983.63
2010,01,22,02,59,983.97
2010,01,22,03,02,983.97
2010,01,22,03,03,983.63
2010,01,22,03,04,983.63
2010,01,22,03,05,983.63
2010,01,22,03,07,983.63
2010,01,22,03,08,983.63
2010,01,22,03,10,983.63
2010,01,22,03,12,983.63
2010,01,22,03,13,983.63
2010,01,22,03,14,983.63
2010,01,22,03,15,983.97
2010,01,22,03,16,983.63
2010,01,22,03,18,983.63
2010,01,22,03,19,983.63
2010,01,22,03,20,983.63
2010,01,22,03,21,983.63
2010,01,22,03,22,983.97
2010,01,22,03,24,983.63
2010,01,22,03,25,983.63
2010,01,22,03,26,983.63
2010,01,22,03,27,983.63
2010,01,22,03,29,983.63
2010,01,22,03,30,983.63
2010,01,22,03,31,983.63
2010,01,22,03,32,983.63
2010,01,22,03,33,983.63
2010,01,22,03,34,983.63
2010,01,22,03,36,983.63
2010,01,22,03,37,983.63
2010,01,22,03,38,983.63
2010,01,22,03,39,983.63
2010,01,22,03,41,983.63
2010,01,22,03,42,983.63
2010,01,22,03,43,983.63
2010,01,22,03,44,983.63
2010,01,22,03,46,983.63
2010,01,22,03,47,983.63
2010,01,22,03,48,983.63
2010,01,22,03,49,983.63
2010,01,22,03,51,983.63
2010,01,22,03,52,983.63
2010,01,22,03,53,983.63
2010,01,22,03,54,983.63
2010,01,22,03,56,983.63
2010,01,22,03,57,983.63
2010,01,22,03,58,983.63
2010,01,22,04,00,983.97
2010,01,22,04,02,983.63
2010,01,22,04,03,983.63
2010,01,22,04,04,983.63
2010,01,22,04,05,983.63
2010,01,22,04,06,983.63
2010,01,22,04,08,983.63
2010,01,22,04,10,983.63
2010,01,22,04,11,983.63
2010,01,22,04,13,983.63
2010,01,22,04,14,983.63
2010,01,22,04,15,983.63
2010,01,22,04,16,983.63
2010,01,22,04,17,983.63
2010,01,22,04,19,983.63
2010,01,22,04,20,983.97
2010,01,22,04,21,983.97
2010,01,22,04,22,983.97
2010,01,22,04,23,983.97
2010,01,22,04,25,983.97
2010,01,22,04,26,983.97
2010,01,22,04,27,983.97
2010,01,22,04,28,983.97
2010,01,22,04,30,983.97
2010,01,22,04,31,983.97
2010,01,22,04,32,983.97
2010,01,22,04,33,983.97
2010,01,22,04,34,983.97
2010,01,22,04,36,983.97
2010,01,22,04,37,983.97
2010,01,22,04,38,983.97
2010,01,22,04,40,983.97
2010,01,22,04,42,983.97
2010,01,22,04,43,983.97
2010,01,22,04,44,983.97
2010,01,22,04,45,983.97
2010,01,22,04,46,983.97
2010,01,22,04,48,983.97
2010,01,22,04,50,983.97
2010,01,22,04,51,983.97
2010,01,22,04,52,983.97
2010,01,22,04,54,983.97
2010,01,22,04,55,983.97
2010,01,22,04,56,983.97
2010,01,22,04,57,983.97
2010,01,22,04,58,983.97
2010,01,22,05,00,983.97
2010,01,22,05,01,983.97
2010,01,22,05,02,983.97
2010,01,22,05,03,983.97
2010,01,22,05,04,983.97
2010,01,22,05,06,983.97
2010,01,22,05,07,983.97
2010,01,22,05,08,983.97
2010,01,22,05,10,983.97
2010,01,22,05,12,983.97
2010,01,22,05,13,983.97
2010,01,22,05,14,983.97
2010,01,22,05,15,983.97
2010,01,22,05,16,983.97
2010,01,22,05,18,983.97
2010,01,22,05,19,983.97
2010,01,22,05,20,983.97
2010,01,22,05,21,983.97
2010,01,22,05,22,983.97
2010,01,22,05,24,983.97
2010,01,22,05,25,983.97
2010,01,22,05,26,983.97
2010,01,22,05,27,983.97
2010,01,22,05,28,983.97
2010,01,22,05,30,983.97
2010,01,22,05,32,983.97
2010,01,22,05,33,983.97
2010,01,22,05,34,983.97
2010,01,22,05,35,983.97
2010,01,22,05,37,983.97
2010,01,22,05,38,983.97
2010,01,22,05,40,983.63
2010,01,22,05,41,983.97
2010,01,22,05,43,983.63
2010,01,22,05,44,983.97
2010,01,22,05,45,983.97
2010,01,22,05,46,983.63
2010,01,22,05,47,983.97
2010,01,22,05,49,983.97
2010,01,22,05,50,983.97
2010,01,22,05,51,983.97
2010,01,22,05,52,983.97
2010,01,22,05,53,983.97
2010,01,22,05,55,983.97
2010,01,22,05,56,983.97
2010,01,22,05,57,983.97
2010,01,22,05,58,983.97
2010,01,22,05,59,983.97
2010,01,22,06,02,983.97
2010,01,22,06,03,983.97
2010,01,22,06,04,983.97
2010,01,22,06,05,983.97
2010,01,22,06,07,983.97
2010,01,22,06,08,983.97
2010,01,22,06,10,983.97
2010,01,22,06,11,983.97
2010,01,22,06,12,983.97
2010,01,22,06,14,983.97
2010,01,22,06,15,983.97
2010,01,22,06,16,983.97
2010,01,22,06,17,983.97
2010,01,22,06,19,983.97
2010,01,22,06,20,983.97
2010,01,22,06,21,983.97
2010,01,22,06,22,983.97
2010,01,22,06,23,984.31
2010,01,22,06,24,984.31
2010,01,22,06,26,984.31
2010,01,22,06,27,984.31
2010,01,22,06,28,984.31
2010,01,22,06,29,983.97
2010,01,22,06,31,984.31
2010,01,22,06,33,984.31
2010,01,22,06,34,984.31
2010,01,22,06,35,984.31
2010,01,22,06,36,984.31
2010,01,22,06,38,984.31
2010,01,22,06,39,984.31
2010,01,22,06,40,984.31
2010,01,22,06,41,984.31
2010,01,22,06,42,984.31
2010,01,22,06,44,984.31
2010,01,22,06,45,984.31
2010,01,22,06,46,984.31
2010,01,22,06,47,984.31
2010,01,22,06,48,984.31
2010,01,22,06,49,984.31
2010,01,22,06,51,984.31
2010,01,22,06,52,984.31
2010,01,22,06,53,984.31
2010,01,22,06,54,984.31
2010,01,22,06,55,984.31
2010,01,22,06,57,984.31
2010,01,22,06,58,984.31
2010,01,22,07,00,984.31
2010,01,22,07,03,984.31
2010,01,22,07,04,984.31
2010,01,22,07,05,984.31
2010,01,22,07,07,984.31
2010,01,22,07,08,984.31
2010,01,22,07,10,984.65
2010,01,22,07,11,984.31
2010,01,22,07,13,984.31
2010,01,22,07,14,984.31
2010,01,22,07,15,984.65
2010,01,22,07,16,984.31
2010,01,22,07,17,984.31
2010,01,22,07,19,984.31
2010,01,22,07,20,984.31
2010,01,22,07,21,984.65
2010,01,22,07,22,984.65
2010,01,22,07,24,984.65
2010,01,22,07,25,984.65
2010,01,22,07,26,984.65
2010,01,22,07,27,984.65
2010,01,22,07,29,984.65
2010,01,22,07,30,984.65
2010,01,22,07,31,984.65
2010,01,22,07,32,984.65
2010,01,22,07,33,984.65
2010,01,22,07,35,984.65
2010,01,22,07,36,984.65
2010,01,22,07,37,984.65
2010,01,22,07,38,984.65
2010,01,22,07,40,984.65
2010,01,22,07,42,984.65
2010,01,22,07,43,984.65
2010,01,22,07,44,984.65
2010,01,22,07,45,984.65
2010,01,22,07,47,984.65
2010,01,22,07,48,984.65
2010,01,22,07,50,984.99
2010,01,22,07,51,984.65
2010,01,22,07,53,984.65
2010,01,22,07,54,984.65
2010,01,22,07,55,984.65
2010,01,22,07,56,984.65
2010,01,22,07,57,984.65
2010,01,22,07,59,984.65
2010,01,22,08,00,984.65
2010,01,22,08,02,984.65
2010,01,22,08,03,984.65
2010,01,22,08,04,984.65
2010,01,22,08,06,984.65
2010,01,22,08,07,984.65
2010,01,22,08,08,984.65
2010,01,22,08,09,984.65
2010,01,22,08,12,984.65
2010,01,22,08,13,984.65
2010,01,22,08,14,984.65
2010,01,22,08,15,984.65
2010,01,22,08,17,984.65
2010,01,22,08,18,984.65
2010,01,22,08,19,984.99
2010,01,22,08,22,984.99
2010,01,22,08,23,984.99
2010,01,22,08,24,984.99
2010,01,22,08,26,984.99
2010,01,22,08,27,984.99
2010,01,22,08,28,984.99
2010,01,22,08,30,984.99
2010,01,22,08,31,984.99
2010,01,22,08,32,984.99
2010,01,22,08,34,984.99
2010,01,22,08,35,984.99
2010,01,22,08,36,984.99
2010,01,22,08,37,984.99
2010,01,22,08,38,984.99
2010,01,22,08,40,984.99
2010,01,22,08,41,985.33
2010,01,22,08,42,985.33
2010,01,22,08,44,985.33
2010,01,22,08,45,985.33
2010,01,22,08,46,985.33
2010,01,22,08,47,985.33
2010,01,22,08,49,985.33
2010,01,22,08,50,985.33
2010,01,22,08,51,985.33
2010,01,22,08,52,985.33
2010,01,22,08,53,985.33
2010,01,22,08,55,985.33
2010,01,22,08,56,985.33
2010,01,22,08,57,985.33
2010,01,22,08,58,985.33
2010,01,22,08,59,985.33
2010,01,22,09,02,985.33
2010,01,22,09,03,985.33
2010,01,22,09,04,985.66
2010,01,22,09,05,985.33
2010,01,22,09,07,985.33
2010,01,22,09,08,985.66
2010,01,22,09,10,985.66
2010,01,22,09,11,985.66
2010,01,22,09,13,985.66
2010,01,22,09,14,985.66
2010,01,22,09,15,985.66
2010,01,22,09,16,985.66
2010,01,22,09,17,985.66
2010,01,22,09,18,985.66
2010,01,22,09,20,985.66
2010,01,22,09,21,985.66
2010,01,22,09,22,985.66
2010,01,22,09,23,986.00
2010,01,22,09,25,986.00
2010,01,22,09,26,986.00
2010,01,22,09,27,986.00
2010,01,22,09,28,986.00
2010,01,22,09,30,986.00
2010,01,22,09,32,986.00
2010,01,22,09,33,986.00
2010,01,22,09,34,986.00
2010,01,22,09,35,986.00
2010,01,22,09,37,986.34
2010,01,22,09,38,986.00
2010,01,22,09,40,986.00
2010,01,22,09,41,986.34
2010,01,22,09,43,986.00
2010,01,22,09,44,986.34
2010,01,22,09,45,986.34
2010,01,22,09,46,986.34
2010,01,22,09,47,986.34
2010,01,22,09,49,986.34
2010,01,22,09,50,986.34
2010,01,22,09,51,986.34
2010,01,22,09,52,986.34
2010,01,22,09,53,986.34
2010,01,22,09,54,986.34
2010,01,22,09,55,986.68
2010,01,22,09,56,986.34
2010,01,22,09,57,986.34
2010,01,22,09,58,986.34
2010,01,22,10,00,986.34
2010,01,22,10,01,986.68
2010,01,22,10,02,986.34
2010,01,22,10,03,986.34
2010,01,22,10,04,986.68
2010,01,22,10,06,986.34
2010,01,22,10,07,986.34
2010,01,22,10,08,986.68
2010,01,22,10,09,986.68
2010,01,22,10,12,986.68
2010,01,22,10,13,986.68
2010,01,22,10,14,986.68
2010,01,22,10,15,986.68
2010,01,22,10,16,986.68
2010,01,22,10,18,986.68
2010,01,22,10,19,986.68
2010,01,22,10,20,986.68
2010,01,22,10,21,986.68
2010,01,22,10,22,986.68
2010,01,22,10,24,986.68
2010,01,22,10,25,986.68
2010,01,22,10,26,986.68
2010,01,22,10,27,986.68
2010,01,22,10,28,987.02
2010,01,22,10,29,986.68
2010,01,22,10,33,987.02
2010,01,22,10,34,987.02
2010,01,22,10,35,987.02
2010,01,22,10,36,987.02
2010,01,22,10,38,987.02
2010,01,22,10,39,987.02
2010,01,22,10,40,987.02
2010,01,22,10,41,987.02
2010,01,22,10,44,987.02
2010,01,22,10,45,987.02
2010,01,22,10,46,987.02
2010,01,22,10,47,987.02
2010,01,22,10,48,987.02
2010,01,22,10,50,987.02
2010,01,22,10,51,987.02
2010,01,22,10,52,987.02
2010,01,22,10,53,987.02
2010,01,22,10,54,987.02
2010,01,22,10,56,987.02
2010,01,22,10,57,987.02
2010,01,22,10,58,987.02
2010,01,22,11,00,987.02
2010,01,22,11,02,987.02
2010,01,22,11,03,987.02
2010,01,22,11,04,987.02
2010,01,22,11,05,987.02
2010,01,22,11,07,987.02
2010,01,22,11,08,987.02
2010,01,22,11,10,987.02
2010,01,22,11,12,987.02
2010,01,22,11,13,987.02
2010,01,22,11,14,987.02
2010,01,22,11,15,987.02
2010,01,22,11,16,987.02
2010,01,22,11,18,987.02
2010,01,22,11,19,987.36
2010,01,22,11,20,987.02
2010,01,22,11,21,987.02
2010,01,22,11,22,987.02
2010,01,22,11,24,987.36
2010,01,22,11,25,987.02
2010,01,22,11,26,987.36
2010,01,22,11,27,987.36
2010,01,22,11,28,987.36
2010,01,22,11,30,987.36
2010,01,22,11,31,987.36
2010,01,22,11,32,987.36
2010,01,22,11,33,987.36
2010,01,22,11,34,987.36
2010,01,22,11,36,987.36
2010,01,22,11,37,987.36
2010,01,22,11,38,987.36
2010,01,22,11,40,987.36
2010,01,22,11,42,987.70
2010,01,22,11,43,987.70
2010,01,22,11,44,987.70
2010,01,22,11,45,987.70
2010,01,22,11,46,987.70
2010,01,22,11,48,987.70
2010,01,22,11,50,987.70
2010,01,22,11,51,987.70
2010,01,22,11,53,987.70
2010,01,22,11,54,987.70
2010,01,22,11,55,987.70
2010,01,22,11,56,987.70
2010,01,22,11,57,987.70
2010,01,22,11,59,987.70
2010,01,22,12,01,987.70
2010,01,22,12,02,987.70
2010,01,22,12,03,987.70
2010,01,22,12,05,987.70
2010,01,22,12,06,987.70
2010,01,22,12,07,987.70
2010,01,22,12,08,987.70
2010,01,22,12,09,987.70
2010,01,22,12,11,987.70
2010,01,22,12,12,987.70
2010,01,22,12,13,988.03
2010,01,22,12,14,987.70
2010,01,22,12,16,987.70
2010,01,22,12,17,987.70
2010,01,22,12,18,987.70
2010,01,22,12,19,987.70
2010,01,22,12,22,987.70
2010,01,22,12,23,987.70
2010,01,22,12,24,987.70
2010,01,22,12,25,987.70
2010,01,22,12,27,987.70
2010,01,22,12,28,987.70
2010,01,22,12,30,987.70
2010,01,22,12,31,987.70
2010,01,22,12,33,987.70
2010,01,22,12,34,987.70
2010,01,22,12,35,987.70
2010,01,22,12,36,987.70
2010,01,22,12,37,987.70
2010,01,22,12,39,987.70
2010,01,22,12,40,987.70
2010,01,22,12,41,987.70
2010,01,22,12,42,988.03
2010,01,22,12,44,987.70
2010,01,22,12,45,987.70
2010,01,22,12,46,988.03
2010,01,22,12,47,987.70
2010,01,22,12,48,987.70
2010,01,22,12,50,987.70
2010,01,22,12,51,987.70
2010,01,22,12,52,987.70
2010,01,22,12,53,987.70
2010,01,22,12,54,987.70
2010,01,22,12,55,987.70
2010,01,22,12,57,987.70
2010,01,22,12,58,987.70
2010,01,22,13,00,987.70
2010,01,22,13,02,987.70
2010,01,22,13,03,987.70
2010,01,22,13,04,987.70
2010,01,22,13,05,987.70
2010,01,22,13,07,987.70
2010,01,22,13,08,987.70
2010,01,22,13,10,987.70
2010,01,22,13,12,987.70
2010,01,22,13,13,987.70
2010,01,22,13,14,987.70
2010,01,22,13,15,987.70
2010,01,22,13,16,987.70
2010,01,22,13,18,987.70
2010,01,22,13,19,987.70
2010,01,22,13,20,987.70
2010,01,22,13,21,987.70
2010,01,22,13,22,987.70
2010,01,22,13,24,987.70
2010,01,22,13,25,987.70
2010,01,22,13,26,987.70
2010,01,22,13,27,987.70
2010,01,22,13,28,987.70
2010,01,22,13,30,987.70
2010,01,22,13,32,987.70
2010,01,22,13,33,987.70
2010,01,22,13,34,987.70
2010,01,22,13,35,987.70
2010,01,22,13,37,987.70
2010,01,22,13,38,987.70
2010,01,22,13,40,988.03
2010,01,22,13,42,987.70
2010,01,22,13,43,987.70
2010,01,22,13,44,987.70
2010,01,22,13,45,987.70
2010,01,22,13,46,988.03
2010,01,22,13,48,988.03
2010,01,22,13,49,988.03
2010,01,22,13,50,988.03
2010,01,22,13,51,988.03
2010,01,22,13,52,988.03
2010,01,22,13,54,988.03
2010,01,22,13,55,988.03
2010,01,22,13,56,988.03
2010,01,22,13,57,988.03
2010,01,22,13,58,988.03
2010,01,22,14,00,988.03
2010,01,22,14,01,988.37
2010,01,22,14,02,988.03
2010,01,22,14,03,988.37
2010,01,22,14,04,988.37
2010,01,22,14,06,988.37
2010,01,22,14,07,988.37
2010,01,22,14,08,988.37
2010,01,22,14,09,988.37
2010,01,22,14,11,988.37
2010,01,22,14,12,988.37
2010,01,22,14,13,988.37
2010,01,22,14,14,988.71
2010,01,22,14,16,988.37
2010,01,22,14,17,988.37
2010,01,22,14,18,988.71
2010,01,22,14,20,988.71
2010,01,22,14,22,988.37
2010,01,22,14,23,988.37
2010,01,22,14,24,988.71
2010,01,22,14,25,988.37
2010,01,22,14,26,988.71
2010,01,22,14,28,988.71
2010,01,22,14,31,988.71
2010,01,22,14,32,988.71
2010,01,22,14,33,988.71
2010,01,22,14,35,988.71
2010,01,22,14,36,988.71
2010,01,22,14,37,988.71
2010,01,22,14,38,989.05
2010,01,22,14,40,989.05
2010,01,22,14,41,989.05
2010,01,22,14,42,989.05
2010,01,22,14,43,989.05
2010,01,22,14,44,989.05
2010,01,22,14,46,989.05
2010,01,22,14,47,989.05
2010,01,22,14,48,989.05
2010,01,22,14,49,989.05
2010,01,22,14,51,989.05
2010,01,22,14,52,989.05
2010,01,22,14,53,989.39
2010,01,22,14,54,989.05
2010,01,22,14,55,989.05
2010,01,22,14,57,989.39
2010,01,22,14,58,989.05
2010,01,22,15,00,989.39
2010,01,22,15,01,989.39
2010,01,22,15,03,989.39
2010,01,22,15,04,989.39
2010,01,22,15,05,989.39
2010,01,22,15,06,989.39
2010,01,22,15,08,989.39
2010,01,22,15,10,989.39
2010,01,22,15,11,989.39
2010,01,22,15,13,989.39
2010,01,22,15,14,989.39
2010,01,22,15,15,989.05
2010,01,22,15,16,989.39
2010,01,22,15,17,989.39
2010,01,22,15,19,989.39
2010,01,22,15,20,989.39
2010,01,22,15,21,989.39
2010,01,22,15,22,989.39
2010,01,22,15,23,989.73
2010,01,22,15,25,989.73
2010,01,22,15,26,989.73
2010,01,22,15,27,989.39
2010,01,22,15,28,989.73
2010,01,22,15,30,989.73
2010,01,22,15,32,989.73
2010,01,22,15,33,989.73
2010,01,22,15,34,989.73
2010,01,22,15,35,989.73
2010,01,22,15,37,989.73
2010,01,22,15,38,989.73
2010,01,22,15,40,989.73
2010,01,22,15,41,989.73
2010,01,22,15,43,990.07
2010,01,22,15,44,990.07
2010,01,22,15,45,990.07
2010,01,22,15,46,990.07
2010,01,22,15,48,990.07
2010,01,22,15,49,990.07
2010,01,22,15,50,990.07
2010,01,22,15,51,990.07
2010,01,22,15,52,990.07
2010,01,22,15,53,990.07
2010,01,22,15,55,990.07
2010,01,22,15,56,990.07
2010,01,22,15,57,990.07
2010,01,22,15,58,990.07
2010,01,22,16,00,990.41
2010,01,22,16,02,990.41
2010,01,22,16,03,990.41
2010,01,22,16,04,990.41
2010,01,22,16,06,990.41
2010,01,22,16,07,990.41
2010,01,22,16,08,990.41
2010,01,22,16,09,990.41
2010,01,22,16,12,990.41
2010,01,22,16,13,990.41
2010,01,22,16,14,990.41
2010,01,22,16,16,990.41
2010,01,22,16,17,990.74
2010,01,22,16,18,990.41
2010,01,22,16,20,990.41
2010,01,22,16,21,990.74
2010,01,22,16,23,990.41
2010,01,22,16,24,990.74
2010,01,22,16,25,990.74
2010,01,22,16,26,990.74
2010,01,22,16,28,990.74
2010,01,22,16,29,990.74
2010,01,22,16,30,990.74
2010,01,22,16,31,990.74
2010,01,22,16,32,990.74
2010,01,22,16,33,990.74
2010,01,22,16,35,990.74
2010,01,22,16,36,990.74
2010,01,22,16,37,990.74
2010,01,22,16,38,990.74
2010,01,22,16,40,990.74
2010,01,22,16,41,990.74
2010,01,22,16,42,990.74
2010,01,22,16,43,990.74
2010,01,22,16,45,991.08
2010,01,22,16,46,990.74
2010,01,22,16,47,991.08
2010,01,22,16,48,990.74
2010,01,22,16,50,990.74
2010,01,22,16,51,991.08
2010,01,22,16,52,990.74
2010,01,22,16,53,991.08
2010,01,22,16,54,991.08
2010,01,22,16,55,991.08
2010,01,22,16,57,991.08
2010,01,22,16,58,991.08
2010,01,22,17,00,991.08
2010,01,22,17,02,991.08
2010,01,22,17,03,991.08
2010,01,22,17,04,991.08
2010,01,22,17,05,991.08
2010,01,22,17,07,991.08
2010,01,22,17,08,991.08
2010,01,22,17,10,991.08
2010,01,22,17,12,991.08
2010,01,22,17,13,991.08
2010,01,22,17,14,991.08
2010,01,22,17,15,991.08
2010,01,22,17,16,991.08
2010,01,22,17,18,991.42
2010,01,22,17,20,991.08
2010,01,22,17,21,991.08
2010,01,22,17,23,991.42
2010,01,22,17,24,991.42
2010,01,22,17,25,991.42
2010,01,22,17,26,991.42
2010,01,22,17,28,991.42
2010,01,22,17,30,991.42
2010,01,22,17,31,991.42
2010,01,22,17,32,991.42
2010,01,22,17,33,991.42
2010,01,22,17,35,991.42
2010,01,22,17,36,991.42
2010,01,22,17,37,991.42
2010,01,22,17,38,991.42
2010,01,22,17,39,991.42
2010,01,22,17,42,991.42
2010,01,22,17,43,991.76
2010,01,22,17,44,991.76
2010,01,22,17,45,991.76
2010,01,22,17,47,991.76
2010,01,22,17,48,991.76
2010,01,22,17,50,991.76
2010,01,22,17,51,991.76
2010,01,22,17,52,991.76
2010,01,22,17,54,992.10
2010,01,22,17,55,991.76
2010,01,22,17,56,992.10
2010,01,22,17,57,992.10
2010,01,22,17,59,992.10
2010,01,22,18,00,992.10
2010,01,22,18,01,992.10
2010,01,22,18,02,992.10
2010,01,22,18,03,992.10
2010,01,22,18,05,992.10
2010,01,22,18,06,992.10
2010,01,22,18,07,992.10
2010,01,22,18,08,992.10
2010,01,22,18,09,992.10
2010,01,22,18,11,992.10
2010,01,22,18,12,992.10
2010,01,22,18,13,992.10
2010,01,22,18,14,992.44
2010,01,22,18,16,992.10
2010,01,22,18,17,992.10
2010,01,22,18,18,992.44
2010,01,22,18,20,992.44
2010,01,22,18,22,992.44
2010,01,22,18,23,992.44
2010,01,22,18,24,992.44
2010,01,22,18,25,992.44
2010,01,22,18,27,992.44
2010,01,22,18,28,992.44
2010,01,22,18,30,992.44
2010,01,22,18,31,992.44
2010,01,22,18,32,992.44
2010,01,22,18,33,992.44
2010,01,22,18,35,992.44
2010,01,22,18,36,992.44
2010,01,22,18,37,992.78
2010,01,22,18,38,992.78
2010,01,22,18,39,992.78
2010,01,22,18,41,992.44
2010,01,22,18,42,992.44
2010,01,22,18,43,992.44
2010,01,22,18,44,992.44
2010,01,22,18,45,992.78
2010,01,22,18,47,992.44
2010,01,22,18,48,992.78
2010,01,22,18,50,992.78
2010,01,22,18,52,992.78
2010,01,22,18,53,992.78
2010,01,22,18,54,992.78
2010,01,22,18,55,992.78
2010,01,22,18,56,992.78
2010,01,22,18,57,992.78
2010,01,22,18,59,992.78
2010,01,22,19,00,992.78
2010,01,22,19,01,992.78
2010,01,22,19,02,992.78
2010,01,22,19,04,992.78
2010,01,22,19,05,992.78
2010,01,22,19,06,992.78
2010,01,22,19,07,992.78
2010,01,22,19,08,992.78
2010,01,22,19,10,993.11
2010,01,22,19,11,992.78
2010,01,22,19,12,992.78
2010,01,22,19,13,993.11
2010,01,22,19,14,992.78
2010,01,22,19,16,993.11
2010,01,22,19,17,993.11
2010,01,22,19,18,993.11
2010,01,22,19,19,993.11
2010,01,22,19,22,993.11
2010,01,22,19,23,993.11
2010,01,22,19,24,993.11
2010,01,22,19,25,993.11
2010,01,22,19,27,993.11
2010,01,22,19,28,993.11
2010,01,22,19,30,993.45
2010,01,22,19,31,993.45
2010,01,22,19,32,993.45
2010,01,22,19,34,993.45
2010,01,22,19,35,993.45
2010,01,22,19,36,993.45
2010,01,22,19,37,993.45
2010,01,22,19,39,993.45
2010,01,22,19,40,993.45
2010,01,22,19,41,993.45
2010,01,22,19,42,993.45
2010,01,22,19,43,993.45
2010,01,22,19,45,993.45
2010,01,22,19,46,993.79
2010,01,22,19,47,993.45
2010,01,22,19,48,993.79
2010,01,22,19,50,993.79
2010,01,22,19,52,993.79
2010,01,22,19,53,993.79
2010,01,22,19,54,993.79
2010,01,22,19,55,993.79
2010,01,22,19,57,993.79
2010,01,22,19,58,993.79
2010,01,22,20,00,993.79
2010,01,22,20,01,993.79
2010,01,22,20,02,993.79
2010,01,22,20,04,994.13
2010,01,22,20,05,993.79
2010,01,22,20,06,994.13
2010,01,22,20,07,994.13
2010,01,22,20,08,994.13
2010,01,22,20,10,994.13
2010,01,22,20,11,994.13
2010,01,22,20,12,994.13
2010,01,22,20,13,994.13
2010,01,22,20,15,994.13
2010,01,22,20,16,994.47
2010,01,22,20,17,994.13
2010,01,22,20,18,994.47
2010,01,22,20,20,994.47
2010,01,22,20,21,994.47
2010,01,22,20,22,994.47
2010,01,22,20,23,994.47
2010,01,22,20,25,994.47
2010,01,22,20,26,994.47
2010,01,22,20,27,994.47
2010,01,22,20,28,994.47
2010,01,22,20,29,994.47
2010,01,22,20,31,994.47
2010,01,22,20,32,994.47
2010,01,22,20,33,994.47
2010,01,22,20,34,994.81
2010,01,22,20,36,994.47
2010,01,22,20,37,994.81
2010,01,22,20,38,994.81
2010,01,22,20,40,994.81
2010,01,22,20,42,994.81
2010,01,22,20,43,994.81
2010,01,22,20,44,994.81
2010,01,22,20,45,994.81
2010,01,22,20,47,994.81
2010,01,22,20,48,995.15
2010,01,22,20,50,994.81
2010,01,22,20,52,995.15
2010,01,22,20,53,995.15
2010,01,22,20,54,995.15
2010,01,22,20,55,995.15
2010,01,22,20,57,995.15
2010,01,22,20,58,995.15
2010,01,22,21,00,995.15
2010,01,22,21,02,995.15
2010,01,22,21,03,995.15
2010,01,22,21,04,995.15
2010,01,22,21,05,995.15
2010,01,22,21,07,995.15
2010,01,22,21,08,995.15
2010,01,22,21,10,995.15
2010,01,22,21,12,995.15
2010,01,22,21,13,995.15
2010,01,22,21,14,995.15
2010,01,22,21,15,995.15
2010,01,22,21,17,995.15
2010,01,22,21,18,995.15
2010,01,22,21,20,995.15
2010,01,22,21,21,995.15
2010,01,22,21,22,995.15
2010,01,22,21,24,995.15
2010,01,22,21,25,995.15
2010,01,22,21,26,995.48
2010,01,22,21,27,995.48
2010,01,22,21,29,995.15
2010,01,22,21,30,995.48
2010,01,22,21,31,995.48
2010,01,22,21,32,995.48
2010,01,22,21,33,995.48
2010,01,22,21,35,995.48
2010,01,22,21,36,995.48